This is the latest recevied weather packets stored in our database for station/object KO4LFZ. If no packets are shown the sender has not sent any weather packets the latest 10 day(s).
| Time | Temp. | Humidity | Pressure | Rain* | Wind** | Luminosity | Snow |
|---|---|---|---|---|---|---|---|
| 1777588410 | 18.33° C | 44% | 1014.9 hPa | 0 mm | - | 127 W/m² | - |
| 1777588105 | 18.89° C | 41% | 1015 hPa | 0 mm | - | 161 W/m² | - |
| 1777587796 | 18.33° C | 42% | 1014.8 hPa | 0 mm | - | 254 W/m² | - |
| 1777587496 | 18.33° C | 45% | 1015 hPa | 0 mm | - | 162 W/m² | - |
| 1777587192 | 18.89° C | 44% | 1014.7 hPa | 0 mm | - | 247 W/m² | - |
| 1777586888 | 18.89° C | 40% | 1014.9 hPa | 0 mm | - | 208 W/m² | - |
| 1777586584 | 18.89° C | 45% | 1014.9 hPa | 0 mm | - | 334 W/m² | - |
| 1777586279 | 18.33° C | 45% | 1014.9 hPa | 0 mm | - | 362 W/m² | - |
| 1777585976 | 17.78° C | 43% | 1015 hPa | 0 mm | - | 245 W/m² | - |
| 1777585672 | 18.33° C | 46% | 1015.1 hPa | 0 mm | - | 155 W/m² | - |
| 1777585367 | 17.78° C | 43% | 1014.9 hPa | 0 mm | - | 210 W/m² | - |
| 1777585062 | 18.33° C | 44% | 1015.1 hPa | 0 mm | - | 220 W/m² | - |
| 1777584758 | 18.33° C | 42% | 1015.1 hPa | 0 mm | - | 310 W/m² | - |
| 1777584456 | 18.33° C | 42% | 1015.1 hPa | 0 mm | - | 350 W/m² | - |
| 1777584152 | 18.33° C | 49% | 1015.2 hPa | 0 mm | - | 282 W/m² | - |
| 1777583852 | 18.33° C | 47% | 1015.4 hPa | 0 mm | - | 365 W/m² | - |
| 1777583548 | 18.33° C | 44% | 1015.4 hPa | 0 mm | - | 452 W/m² | - |
| 1777583247 | 18.33° C | 42% | 1015.4 hPa | 0 mm | - | 458 W/m² | - |
| 1777582942 | 18.33° C | 43% | 1015.6 hPa | 0 mm | - | 196 W/m² | - |
| 1777582640 | 18.33° C | 46% | 1015.6 hPa | 0 mm | - | 568 W/m² | - |
| 1777582334 | 17.78° C | 47% | 1015.5 hPa | 0 mm | - | 255 W/m² | - |
| 1777582033 | 17.78° C | 44% | 1015.9 hPa | 0 mm | - | 379 W/m² | - |
| 1777581728 | 18.33° C | 45% | 1015.9 hPa | 0 mm | - | 468 W/m² | - |
| 1777581426 | 17.78° C | 42% | 1015.9 hPa | 0 mm | - | 417 W/m² | - |
| 1777581127 | 17.78° C | 44% | 1016.1 hPa | 0 mm | - | 534 W/m² | - |
* Rain latest hour (hover to see other rain measurements)
** Current wind speed in m/s (hover to see current wind gust speed)